Theta_e
324 323 323 323 323 322 323 325 324 324 325 324 324 323 322 323 324 327 327 327 327 328 328 329 329 328 328 328 329 329 330 330 331 332 333 332 332 331 330 331 332 333 333 334 334 334 335 335 336 336 335 336 336 336 336 336 335 334 333 332 332 332 332 332 331 332 332 332 331 331 331 331 331 330 330 331 331 330 331 332 333 333 333 333 332 331
323 321 322 325 324 323 323 323 325 325 324 324 325 322 323 323 324 326 326 326 327 327 327 328 329 329 329 329 329 329 329 331 331 331 332 332 332 332 331 332 332 333 334 334 335 334 334 334 336 336 335 335 336 335 336 335 335 334 334 333 333 333 333 333 333 332 332 332 332 332 332 332 331 329 329 330 329 331 332 333 333 333 334 334 333 332
320 319 320 323 323 323 323 323 324 324 324 324 324 325 323 323 324 325 326 326 326 325 327 327 328 330 329 328 329 329 329 330 330 330 331 331 332 332 331 332 333 333 333 334 335 334 334 334 334 335 335 335 335 335 335 335 335 335 335 334 334 333 334 334 333 333 333 333 333 334 334 334 333 332 331 331 330 330 332 332 331 332 332 333 333 332
315 316 318 321 323 324 323 323 324 324 323 324 324 324 321 322 323 322 324 327 326 325 326 326 327 329 330 329 328 329 328 329 328 328 330 331 331 332 332 331 332 332 333 333 334 336 335 335 335 335 335 335 335 335 335 335 335 336 336 336 336 335 335 335 335 335 334 334 335 335 335 335 335 335 334 334 333 331 331 331 331 331 331 331 330 330
314 315 318 321 322 323 323 323 325 323 320 323 326 323 321 322 323 323 325 326 325 325 326 327 328 328 329 329 329 327 328 328 328 329 329 330 330 331 331 332 332 332 332 332 334 336 336 335 336 336 335 335 335 335 335 336 336 336 336 336 336 336 336 336 336 336 336 336 336 336 336 335 335 335 334 334 333 332 332 332 332 332 332 331 330 330
315 315 319 321 322 323 324 323 324 324 320 320 324 323 322 324 324 324 324 326 326 325 324 327 328 328 328 328 329 328 328 329 329 330 330 330 330 330 331 332 332 332 333 333 333 334 336 335 336 335 336 335 335 335 336 336 336 336 337 337 336 337 336 336 336 336 335 335 335 335 335 334 334 333 332 331 331 331 331 330 331 332 331 331 330 331
315 316 320 321 322 323 324 322 323 326 320 317 322 324 324 325 323 324 323 324 324 323 323 325 326 327 327 327 329 329 329 329 329 330 330 330 330 330 331 331 331 332 331 333 334 335 336 336 335 336 336 336 336 336 337 337 337 337 337 337 336 335 335 335 334 334 333 334 334 333 333 332 332 331 330 330 330 329 329 329 329 330 330 330 330 330
316 317 320 321 322 322 322 320 323 324 319 317 322 325 324 324 323 325 323 321 321 322 323 324 324 324 324 327 329 329 329 331 330 331 332 331 331 331 331 331 331 331 331 331 332 335 336 336 337 337 337 337 336 337 337 337 336 336 335 334 333 333 333 332 332 331 331 331 330 330 329 328 328 328 327 327 327 327 326 326 326 326 326 327 327 328
317 318 320 321 321 320 320 322 323 323 323 321 323 325 325 325 325 325 322 320 322 322 320 321 322 322 323 326 329 329 330 331 332 332 332 331 331 331 330 331 331 330 331 331 332 334 336 336 337 336 335 335 335 335 334 335 334 333 332 331 331 330 330 330 329 329 328 328 328 327 326 326 325 325 324 323 322 323 323 322 323 323 323 323 324 324
316 316 318 320 320 318 320 323 323 323 324 323 323 325 325 325 325 325 323 320 320 320 319 320 321 321 324 325 326 329 330 331 332 332 331 330 330 331 330 330 330 330 330 332 333 334 334 334 333 332 332 331 332 332 332 332 331 330 329 329 329 328 327 327 327 327 327 326 326 325 325 324 323 323 322 321 321 321 321 321 322 322 321 322 321 322
315 315 317 318 318 319 321 322 322 323 324 324 324 325 324 325 324 323 323 319 319 320 319 319 320 321 323 323 325 329 330 331 332 331 331 330 329 330 331 330 329 329 328 329 331 331 330 329 328 329 330 330 331 330 330 329 328 327 326 326 327 326 326 326 326 326 326 325 325 325 324 323 323 322 321 321 321 320 320 320 320 320 319 319 319 320
317 316 316 316 316 320 322 322 323 323 324 325 325 323 321 321 322 321 320 319 319 321 320 319 319 320 322 324 326 329 330 331 330 330 330 329 329 330 330 328 328 328 326 326 327 329 328 328 328 328 329 329 329 329 328 327 326 326 325 325 325 324 324 325 325 326 325 324 324 324 323 323 323 322 321 321 320 320 319 319 319 318 318 318 317 318
317 317 317 318 319 321 322 321 322 323 324 324 323 321 319 318 319 319 319 318 319 321 320 318 320 322 323 326 329 330 331 331 331 330 329 329 329 330 329 328 328 327 325 325 327 329 329 328 328 328 328 328 327 327 327 326 326 325 325 325 325 324 324 324 324 324 324 324 323 323 322 322 322 321 320 319 318 318 318 317 317 316 316 316 315 315
313 317 317 319 320 321 322 320 318 320 323 323 321 318 317 318 318 317 317 317 318 319 319 319 322 322 323 327 329 330 331 332 331 330 329 329 329 329 328 326 327 326 326 326 328 329 328 328 328 328 328 327 327 326 326 326 325 325 325 325 324 323 322 322 322 321 321 320 320 320 320 319 319 318 318 317 316 317 317 316 315 315 314 314 313 313
310 313 316 318 319 321 322 321 319 321 322 322 323 320 317 317 316 315 316 315 317 319 318 321 323 321 324 329 330 329 330 331 330 329 329 328 328 327 326 326 326 326 326 325 327 328 328 328 329 328 327 327 327 326 325 325 325 324 324 324 324 322 321 320 319 318 318 317 316 317 317 317 317 316 316 315 315 316 315 315 314 313 313 313 312 312
310 312 317 318 318 320 321 321 322 322 321 323 324 320 318 318 317 317 321 321 319 318 318 319 321 323 328 331 329 328 330 330 330 329 328 327 327 327 326 326 326 325 325 324 326 328 329 328 329 328 327 326 326 325 325 325 325 324 324 324 324 322 320 318 317 316 316 315 315 315 315 316 315 314 314 313 313 314 314 313 313 312 311 311 312 313
310 312 320 319 317 319 319 320 322 320 319 322 320 317 319 323 320 317 320 324 320 316 318 319 320 324 327 329 329 329 330 331 330 328 327 327 327 327 327 327 326 325 324 324 327 329 329 328 328 328 327 326 325 325 324 324 324 324 324 323 322 320 319 318 316 316 315 315 314 314 313 313 313 312 312 312 312 312 312 311 311 311 310 311 313 314
315 313 319 321 319 318 319 319 321 321 321 320 316 318 321 323 322 319 317 319 317 316 319 320 319 322 323 327 331 330 331 332 330 328 327 327 327 327 327 327 326 325 325 325 328 329 328 327 327 326 325 324 323 322 321 321 321 321 321 320 319 318 317 316 316 315 314 314 313 313 313 312 311 311 311 311 311 311 310 309 309 309 310 312 314 314
319 313 316 322 320 318 319 320 319 319 321 321 319 321 322 317 317 318 316 317 316 316 318 319 320 319 319 326 330 330 332 332 330 329 328 327 327 327 326 326 326 326 325 324 326 327 327 326 325 323 322 320 319 318 318 317 317 317 317 317 316 316 315 315 314 314 313 313 313 313 313 313 312 311 311 311 311 310 309 308 309 310 311 313 314 314
323 316 314 319 321 319 320 319 317 317 320 322 321 322 322 318 318 318 316 316 315 315 316 318 320 318 320 327 331 330 332 332 330 330 328 327 327 326 326 326 325 324 324 323 323 325 325 323 322 321 319 318 317 316 315 315 315 314 314 314 314 314 314 314 313 313 312 312 311 311 311 310 309 309 309 309 310 309 308 308 309 310 313 314 314 314
324 319 313 317 320 318 318 319 319 319 319 318 318 318 319 320 320 320 318 316 316 315 315 316 317 319 324 329 330 330 332 332 330 330 329 328 327 326 326 325 324 324 323 322 322 323 323 321 320 318 317 316 315 314 314 314 314 313 313 313 312 312 311 311 311 311 310 310 309 308 307 307 307 307 307 308 308 308 308 309 310 311 313 314 313 314
323 318 313 315 317 314 318 322 322 322 322 320 320 318 319 320 318 316 317 317 316 315 315 315 315 321 328 329 329 331 331 330 330 329 329 328 327 326 326 325 324 324 322 322 322 322 321 320 318 317 316 315 315 314 314 313 313 312 312 311 311 310 310 309 309 308 308 308 307 307 306 306 306 306 307 308 309 308 309 310 310 311 312 313 313 314
327 324 315 314 317 318 321 323 320 321 322 322 322 322 323 322 317 314 315 318 317 316 317 316 316 324 331 330 330 332 330 330 329 328 328 327 326 325 324 324 323 322 321 321 321 320 319 318 316 315 315 314 314 314 313 312 312 311 311 310 309 309 309 308 308 307 306 306 306 305 305 306 307 307 308 309 309 308 309 310 310 311 311 312 313 313
329 326 316 314 319 321 322 323 322 323 323 321 322 324 324 322 321 320 319 320 318 316 317 316 315 326 332 330 331 332 330 330 329 328 328 326 326 324 323 323 321 321 320 320 320 319 317 317 316 315 314 313 313 313 312 312 311 310 310 309 308 308 308 307 306 306 305 305 305 305 306 307 307 308 308 308 308 308 309 309 309 310 310 311 312 312
324 322 317 314 316 318 319 320 320 321 322 324 325 325 325 324 324 324 323 322 318 316 318 315 316 327 333 331 331 331 329 330 329 327 327 325 325 323 322 322 321 320 320 319 319 318 317 316 315 314 313 312 312 312 311 311 310 309 309 308 307 307 307 306 305 305 305 305 305 306 307 307 307 308 308 308 308 308 308 308 308 309 309 310 310 311
323 323 320 314 313 315 315 316 318 320 321 324 327 326 324 324 325 323 321 318 316 318 320 315 317 329 334 331 331 331 329 330 329 327 326 325 325 323 322 322 321 320 319 318 318 318 317 316 314 313 313 312 311 310 310 310 309 308 308 307 307 306 306 306 305 305 305 305 306 307 307 307 307 308 308 308 308 307 307 307 307 308 308 309 309 310
327 328 327 322 319 318 318 320 325 326 322 320 323 325 324 325 328 325 319 316 318 320 319 317 323 332 333 331 331 330 329 330 329 328 326 325 324 323 322 321 320 319 318 318 317 317 316 315 314 314 313 312 311 310 309 308 307 307 307 306 306 306 306 305 305 305 305 306 306 306 307 307 307 307 307 307 307 307 307 307 307 307 307 308 309 309
326 323 328 332 327 324 324 325 328 329 324 321 322 324 324 326 329 326 320 321 323 318 316 323 331 332 331 333 331 330 330 331 329 327 326 326 324 323 321 320 318 318 317 317 316 315 315 315 314 314 312 311 310 309 308 308 307 306 306 306 305 305 305 305 305 305 305 305 306 306 306 306 306 307 306 306 306 306 306 306 306 306 307 307 308 308
328 321 328 334 328 327 327 324 326 329 327 325 324 324 325 326 328 327 324 326 325 319 319 329 331 329 331 333 331 330 331 330 329 328 326 325 323 322 320 319 318 317 316 316 315 314 315 314 313 313 311 310 309 308 308 307 306 306 306 305 305 305 304 304 304 304 304 305 305 305 305 305 305 305 305 305 305 305 306 305 305 306 306 306 307 307
327 323 330 332 328 328 327 324 327 327 325 325 325 326 327 326 327 328 327 329 326 324 328 330 329 330 332 332 331 330 330 329 329 327 325 324 322 321 320 319 318 316 315 314 314 314 314 313 312 311 311 310 309 308 308 307 306 306 305 305 304 303 303 303 304 304 304 304 304 304 304 304 304 304 304 304 304 304 305 305 305 305 305 305 306 306
326 324 331 332 325 325 327 325 326 326 324 324 324 325 326 326 326 328 329 331 328 328 332 331 329 331 332 331 331 330 329 329 328 327 325 324 322 321 320 319 317 316 315 314 313 313 313 312 311 310 310 309 309 308 308 307 306 306 305 304 303 303 304 304 304 304 304 304 304 304 304 304 304 304 304 304 304 304 304 305 304 304 305 305 306 306
327 325 330 329 320 321 326 325 324 325 324 322 324 325 325 325 327 328 330 330 329 329 332 329 327 330 332 332 331 330 330 329 328 327 325 323 322 322 320 318 317 316 314 313 312 313 312 311 310 310 309 308 308 307 307 306 305 305 304 303 303 303 304 304 304 304 303 303 303 303 303 303 303 303 303 303 303 303 304 304 304 304 305 305 305 306
328 325 326 324 317 319 327 327 325 325 322 320 324 326 326 327 328 328 329 331 331 331 329 326 327 331 333 331 330 330 329 329 328 327 325 323 323 321 320 318 316 315 314 312 311 311 310 310 310 309 308 308 307 306 306 305 305 304 304 303 303 303 304 303 303 303 303 303 303 303 303 303 303 303 303 303 303 303 303 303 304 304 304 305 305 305
329 325 324 323 317 320 327 327 324 323 320 321 327 330 330 330 327 327 329 330 331 330 328 328 330 333 333 331 331 330 329 328 328 326 325 324 323 321 319 317 315 314 313 312 311 310 310 309 309 309 308 307 306 305 305 304 304 304 303 303 303 303 303 303 303 303 303 303 302 302 302 302 303 303 302 302 302 302 303 303 303 303 303 304 304 305
329 325 324 323 319 320 325 324 322 321 322 326 329 329 328 328 328 329 330 329 329 329 328 329 331 332 332 331 331 330 329 327 326 325 324 323 322 320 318 316 315 314 312 312 311 310 310 309 309 308 307 306 305 305 304 304 303 303 302 302 303 303 303 302 302 302 302 302 302 302 302 302 302 302 302 302 302 302 302 302 302 302 302 303 303 304
328 325 323 323 321 321 321 319 320 324 325 329 331 328 326 327 329 328 327 326 328 329 329 330 331 331 332 330 329 328 327 325 324 323 322 321 320 319 317 316 315 313 312 312 311 310 310 309 308 308 307 306 305 304 303 303 303 302 302 302 302 302 302 302 302 302 302 302 302 302 302 302 301 301 301 301 301 301 301 301 301 301 301 301 302 302
328 326 322 321 322 321 318 316 319 322 323 327 331 329 327 329 330 329 324 325 329 328 328 330 331 330 330 329 327 326 323 323 323 321 320 320 319 319 317 316 314 312 311 311 310 310 309 308 308 307 306 305 304 303 303 303 302 302 302 302 302 302 302 302 301 301 301 301 301 301 301 301 301 301 301 301 301 301 301 300 300 300 300 300 301 301
327 328 324 320 320 321 317 316 318 318 318 323 330 331 330 330 331 329 323 324 329 329 327 330 331 329 329 327 325 324 324 326 326 322 319 317 318 317 316 314 312 311 310 309 309 309 308 307 307 306 305 305 304 303 303 302 302 302 302 302 301 301 302 301 301 301 301 301 301 301 301 300 300 300 300 300 300 300 300 300 299 299 299 300 300 301
325 327 326 321 319 319 317 316 317 317 317 325 332 333 330 327 329 328 322 321 328 330 328 329 330 328 327 326 325 326 326 327 327 323 318 316 317 316 314 312 311 310 309 309 308 308 307 307 306 305 305 304 304 303 303 302 301 301 301 301 301 301 302 301 301 300 300 300 300 300 300 300 300 300 300 300 300 299 299 299 299 299 299 299 299 300
325 325 323 320 318 318 318 316 316 316 321 330 333 329 326 327 329 326 319 320 328 331 328 329 329 328 328 326 326 327 327 326 326 322 317 316 315 314 312 311 310 309 309 308 308 307 307 306 305 304 304 303 303 303 302 302 301 301 301 301 301 301 301 301 301 300 300 300 300 300 300 300 299 300 299 300 299 299 299 298 298 298 298 298 299 299
324 323 321 319 318 317 318 317 316 318 325 331 329 326 326 328 328 322 319 322 328 330 328 329 329 328 327 326 326 328 326 324 322 319 316 315 314 312 312 310 309 309 309 308 307 307 306 305 304 303 303 303 302 301 301 301 301 301 301 301 301 301 301 300 300 300 300 300 300 300 300 299 299 299 299 299 299 299 298 298 298 298 298 298 298 299
321 321 320 320 318 318 319 318 315 318 326 330 328 326 327 326 322 321 324 328 330 329 329 329 328 327 327 326 327 327 324 320 318 316 315 315 314 312 311 310 309 309 308 307 306 305 305 304 304 303 303 302 301 300 300 301 301 301 301 301 300 300 300 300 300 300 299 299 299 299 300 300 299 299 299 299 299 299 298 298 298 298 298 298 298 298
321 319 316 318 320 319 319 319 317 319 327 329 327 326 327 326 323 323 327 329 329 329 329 329 328 326 326 327 327 325 321 318 317 315 314 314 313 312 311 310 309 309 307 307 306 305 305 304 304 303 303 301 300 300 300 301 301 300 300 300 300 299 300 300 300 299 299 299 299 299 299 299 299 299 299 299 299 299 299 298 298 298 297 297 298 298
322 318 314 318 322 319 316 318 321 324 327 328 327 327 327 326 327 327 326 326 328 329 328 328 328 326 326 327 326 322 320 318 316 315 314 313 313 311 310 310 309 308 307 307 306 305 305 304 304 303 302 301 300 300 300 300 300 300 300 299 299 299 300 300 300 299 299 299 299 299 299 299 299 299 298 299 299 299 299 298 298 298 297 297 297 297
323 324 321 321 323 321 320 324 328 329 328 327 328 331 329 327 327 329 327 325 327 328 327 327 327 326 326 326 324 320 319 317 315 315 313 312 312 311 311 310 309 308 307 306 306 305 305 304 303 302 301 300 300 300 300 299 300 300 299 299 298 299 299 300 299 299 300 299 299 299 299 299 299 299 298 299 299 299 299 298 298 297 296 296 296 296
324 326 323 322 325 325 325 328 329 327 328 328 327 328 329 327 326 327 326 326 325 326 327 326 326 325 325 324 322 321 319 317 315 315 313 313 312 312 311 310 309 308 307 306 306 305 304 304 303 302 301 301 300 300 299 299 299 299 299 298 298 298 299 299 299 300 300 299 299 299 298 298 298 298 298 298 298 298 298 298 298 297 296 295 295 295
324 323 321 322 324 322 322 327 329 328 329 330 327 326 326 326 326 326 326 327 326 326 326 326 325 325 324 323 322 321 318 317 315 314 313 313 313 311 311 310 309 307 307 306 306 305 304 304 303 302 301 301 300 299 299 298 298 298 298 297 297 298 299 299 299 299 300 299 299 299 299 298 298 298 298 298 298 298 298 297 297 296 295 294 294 293
325 322 321 323 324 322 324 329 330 328 327 328 327 326 325 324 324 325 325 327 326 326 326 327 325 324 323 323 322 320 317 316 315 313 312 313 313 311 311 309 308 307 307 306 305 305 304 304 303 302 301 300 299 299 298 298 298 297 297 297 297 298 299 299 299 299 299 299 299 299 299 298 298 298 298 298 298 298 297 297 296 296 295 294 292 292
323 321 321 323 324 323 324 327 326 325 326 325 325 326 326 325 324 324 323 325 326 325 325 325 324 324 323 322 322 319 316 316 316 314 313 312 312 311 310 309 308 307 306 306 305 305 304 303 302 301 300 300 299 299 298 298 297 297 297 297 296 297 298 299 299 299 299 299 299 298 299 299 298 298 298 298 298 298 297 296 295 295 295 294 292 290
320 320 322 323 321 320 323 327 327 324 323 326 326 326 326 325 324 323 323 324 324 324 323 323 323 322 322 322 321 318 316 315 315 314 313 312 311 310 309 309 308 307 306 306 305 304 304 303 302 301 300 299 299 298 298 298 297 297 296 296 296 297 298 298 299 299 299 298 298 297 298 299 299 298 298 298 298 298 297 296 295 295 294 294 292 291
320 322 324 322 321 322 324 328 328 325 323 327 329 328 326 324 323 323 324 324 323 323 323 322 321 320 320 320 319 318 317 316 314 314 313 312 311 310 309 308 307 306 306 305 305 304 303 303 302 301 300 299 299 298 298 297 297 296 296 296 296 296 297 298 298 298 298 298 297 296 297 298 298 298 298 298 298 298 298 297 296 296 295 294 293 292
Wind_Speed
7 5 4 3 6 6 2 6 11 12 16 14 12 10 10 10 10 11 11 7 7 10 12 12 13 14 12 11 11 11 11 12 11 11 9 8 8 7 8 8 8 8 8 8 7 6 5 4 3 3 3 3 4 5 5 6 6 7 8 8 9 9 9 10 11 11 11 11 11 11 12 12 11 10 10 10 9 10 10 10 10 10 10 9 9 9
6 5 6 5 8 9 6 9 14 15 14 11 11 11 10 10 10 11 10 7 6 8 11 13 14 13 12 11 11 11 11 12 11 11 11 10 9 8 9 9 8 7 7 8 8 7 6 6 5 4 4 4 5 6 6 6 7 8 9 10 10 10 10 11 12 12 11 11 11 11 11 12 12 12 12 12 12 12 11 12 12 11 11 11 11 10
6 2 7 6 8 9 9 11 14 15 13 9 8 9 9 9 10 11 10 9 8 6 10 14 13 10 11 12 11 11 11 11 11 11 11 11 10 9 9 9 8 8 7 7 8 8 7 7 6 5 5 5 6 6 7 8 8 9 10 11 11 11 11 11 12 12 11 11 11 10 11 11 12 12 12 13 13 13 13 14 14 13 12 12 12 12
4 4 6 7 9 10 10 12 13 12 9 7 7 6 8 9 9 9 8 8 8 8 12 15 10 6 8 11 10 11 11 10 11 12 11 10 11 10 10 9 8 8 8 7 8 8 8 8 7 7 7 6 7 8 9 9 9 9 10 11 11 11 11 11 12 12 11 11 10 10 11 11 11 11 12 12 13 14 16 16 16 16 15 15 14 15
7 6 4 8 10 11 12 12 11 8 4 7 9 6 7 9 9 8 9 10 9 9 12 13 8 5 7 9 9 10 10 10 11 11 11 11 10 10 9 9 9 8 8 7 7 7 7 8 8 8 8 8 8 9 9 10 10 9 10 11 11 10 11 11 12 13 12 11 11 12 12 12 12 12 13 15 16 17 18 19 19 20 19 18 17 17
7 5 5 11 11 12 12 10 9 8 4 6 11 9 8 10 10 12 13 10 6 6 7 5 4 5 7 9 9 8 9 10 10 10 11 10 10 9 9 9 8 8 7 7 7 7 8 8 8 9 9 9 9 9 9 9 10 10 11 11 11 11 12 12 13 13 13 12 13 14 14 14 15 15 15 17 18 19 20 21 21 21 21 21 20 19
5 3 6 10 11 12 12 8 7 7 4 4 9 11 11 11 11 13 12 6 2 5 5 3 2 6 6 7 8 7 9 10 10 10 10 10 10 9 8 8 8 8 7 7 8 8 8 8 9 10 10 10 9 9 9 10 11 11 12 12 12 12 12 13 13 14 14 13 14 15 15 15 15 16 16 17 18 19 20 22 22 21 20 21 22 21
5 6 8 8 10 11 9 7 8 6 4 5 9 10 12 12 11 10 6 2 4 6 6 3 2 5 6 6 6 6 8 10 10 10 10 10 10 9 9 9 9 8 8 8 8 9 10 10 10 11 11 11 10 10 10 11 11 12 13 14 14 14 15 15 15 16 16 15 16 17 17 16 16 16 17 17 18 19 19 21 22 21 20 21 22 22
4 7 9 9 9 7 4 7 12 10 6 7 11 9 9 10 8 6 3 4 3 2 5 4 1 2 6 6 5 5 7 9 9 9 9 10 10 9 9 9 9 9 9 9 9 10 11 11 11 12 12 11 11 11 12 12 13 14 15 16 16 17 17 18 18 18 18 18 17 17 17 17 16 16 16 16 17 18 19 20 21 21 21 22 23 22
3 2 4 6 6 2 5 9 11 8 6 11 12 8 7 7 5 3 1 3 2 1 5 4 3 1 6 5 4 5 6 7 8 7 8 9 9 9 9 9 9 9 9 10 11 12 12 13 13 13 14 14 13 13 14 14 14 15 16 18 18 18 18 18 19 19 18 18 17 17 17 17 16 16 16 17 18 18 19 20 21 21 21 22 23 23
6 4 1 1 0 3 7 8 5 4 11 14 12 8 7 5 2 2 0 1 3 1 5 3 3 3 3 5 3 4 5 5 5 6 7 8 9 9 8 8 9 9 9 10 12 14 14 14 15 15 16 15 15 14 15 15 15 16 17 18 19 18 18 18 19 19 18 18 17 17 17 17 17 17 16 17 18 19 19 20 21 21 21 22 22 23
8 5 2 2 2 5 10 8 4 9 16 14 9 8 6 4 3 3 3 3 3 2 4 3 1 3 1 5 5 5 5 3 5 6 8 8 9 9 8 8 9 9 10 10 11 13 14 14 15 15 16 15 15 15 15 15 15 16 16 17 18 18 17 18 18 19 18 18 17 17 16 16 16 16 16 17 17 18 19 20 20 21 21 22 23 22
7 5 5 5 3 6 10 9 5 9 13 10 7 7 5 4 3 3 2 1 2 3 4 3 1 2 4 7 6 6 5 4 5 6 7 8 9 9 8 9 9 9 10 10 9 10 11 12 13 14 15 14 15 15 15 15 15 15 15 16 17 17 17 17 17 18 18 17 17 16 16 15 15 15 16 16 17 18 19 19 20 21 22 23 24 23
5 5 7 6 4 7 8 8 7 7 9 8 7 6 4 2 1 2 1 1 2 4 5 2 1 2 6 6 6 6 5 5 5 6 7 8 8 9 9 9 9 9 9 9 8 9 11 11 12 13 13 13 14 14 14 14 14 14 15 16 16 17 17 17 17 18 18 18 18 17 17 16 16 16 16 17 18 18 18 19 20 21 22 23 24 24
3 5 5 3 4 7 6 2 4 7 8 8 6 6 5 1 1 2 2 2 3 4 5 3 1 1 5 5 6 7 6 5 5 7 8 8 9 8 9 9 9 9 8 8 8 10 11 11 11 12 12 12 13 13 13 13 13 14 15 15 16 16 17 18 18 17 18 18 18 18 18 17 17 17 17 17 17 17 18 18 19 21 22 22 23 22
2 4 5 2 2 6 5 1 2 5 7 6 4 5 4 2 2 1 3 4 4 1 3 3 1 3 4 6 8 7 7 7 6 8 9 9 9 8 8 8 7 7 7 7 7 9 10 10 10 11 11 11 12 12 12 13 13 13 14 15 16 16 16 17 17 17 17 17 18 18 18 17 17 17 17 17 18 17 17 18 19 20 21 21 21 20
2 4 6 3 4 5 4 1 3 3 2 5 4 4 1 4 2 1 2 2 1 3 1 3 2 5 6 6 8 9 9 9 8 9 9 10 10 8 7 7 6 7 7 7 7 8 9 9 10 11 11 11 11 12 12 13 13 14 15 15 15 16 16 16 16 16 16 16 17 17 18 17 17 17 17 17 19 18 18 19 19 20 21 20 20 19
2 4 5 2 4 4 1 4 5 2 2 2 4 5 5 2 1 2 1 1 3 3 1 3 4 5 6 4 8 11 10 10 10 10 10 10 10 8 7 7 7 7 7 7 8 8 9 9 10 10 11 11 12 12 13 13 14 15 15 15 15 16 16 15 15 16 16 16 16 16 17 17 17 17 17 18 19 19 19 20 20 20 20 20 19 19
2 3 5 2 3 6 5 6 6 3 2 3 2 6 4 2 3 3 3 3 4 3 0 4 3 4 5 4 9 13 12 12 11 10 10 10 9 8 8 7 8 8 7 7 7 8 9 9 10 10 10 11 12 12 13 14 14 15 15 15 15 15 15 15 16 16 16 16 16 15 16 16 17 17 18 18 19 19 20 21 20 20 20 20 20 20
2 2 4 4 3 5 7 6 5 6 4 1 2 4 4 4 2 1 2 3 4 4 1 2 3 3 2 5 12 14 13 13 12 11 10 10 9 8 7 7 7 7 7 7 7 8 10 10 10 10 10 11 11 12 13 13 14 14 14 15 15 14 15 15 16 16 16 17 17 18 18 19 19 19 20 20 20 20 21 21 21 21 20 20 21 21
3 2 3 6 5 5 5 3 2 2 4 5 5 5 4 3 1 2 2 2 4 4 3 2 2 3 4 4 11 14 13 13 12 11 10 9 10 9 8 7 8 8 8 8 8 9 10 9 9 10 9 10 11 12 12 12 13 13 14 15 15 16 16 16 16 17 17 18 19 21 22 22 22 22 22 21 21 21 21 21 21 21 21 21 21 22
2 3 3 5 5 5 2 4 4 4 2 2 3 4 4 4 3 4 4 3 3 4 3 4 3 4 5 2 7 12 12 12 13 12 10 10 11 10 9 8 8 8 8 8 8 9 9 9 9 10 10 10 11 12 12 12 13 14 14 15 16 17 17 17 17 18 19 20 21 22 22 22 21 21 22 21 20 21 21 21 21 21 21 21 21 22
2 3 4 3 3 2 5 5 2 2 3 3 3 2 3 4 5 5 3 1 2 2 1 3 3 3 5 3 6 10 11 11 12 12 11 11 11 11 10 9 9 9 8 9 9 10 9 8 8 9 10 10 11 12 12 12 13 14 15 15 16 17 18 18 19 20 20 20 20 20 19 19 18 19 20 19 19 20 20 20 20 20 21 21 21 22
2 3 3 3 3 4 5 4 3 2 2 4 3 2 3 3 3 4 4 2 2 3 2 4 3 3 5 4 6 9 11 11 11 12 13 12 10 11 11 10 9 9 9 9 10 9 8 8 8 9 9 10 11 12 12 13 13 14 15 15 16 17 19 20 20 20 20 19 18 17 17 17 17 18 19 18 18 20 20 20 20 20 20 21 21 22
2 2 3 4 4 5 4 4 4 3 4 4 2 2 3 3 2 2 2 2 4 4 3 6 3 4 6 6 8 11 12 12 12 12 13 12 11 11 10 9 9 9 9 9 9 9 9 8 8 9 10 10 11 12 12 13 13 14 15 16 17 18 19 19 19 18 18 17 16 16 16 17 17 17 18 18 19 20 20 20 20 20 21 21 22 22
1 2 4 5 5 5 5 4 3 3 4 3 2 4 4 4 5 3 2 4 4 2 3 6 2 6 7 8 11 13 13 13 13 12 12 11 11 11 10 9 9 9 8 9 9 9 9 9 10 10 10 11 12 12 12 13 14 14 15 16 17 17 18 18 17 16 16 15 15 15 16 17 17 17 18 19 19 20 20 20 20 21 21 21 22 22
1 1 2 4 4 2 2 3 3 1 4 6 5 6 5 4 4 4 4 4 2 0 4 5 3 8 10 12 13 15 14 13 13 13 12 11 11 11 10 9 9 8 8 8 8 8 9 9 10 11 11 11 12 12 13 13 14 14 15 16 16 16 16 16 16 15 14 14 15 15 16 17 17 17 18 18 18 19 19 20 21 21 21 21 22 22
2 2 1 2 3 3 4 4 4 2 3 5 6 7 6 5 5 6 5 3 2 3 4 2 7 9 11 14 15 16 15 13 13 13 12 12 11 11 10 10 10 9 8 8 8 8 9 8 9 11 11 12 12 13 13 13 13 14 14 14 15 15 15 15 15 14 14 14 15 16 16 17 16 16 18 18 18 19 19 20 21 21 21 21 21 22
4 2 1 0 1 3 3 2 2 0 1 3 5 7 6 6 6 6 4 2 3 5 4 3 5 6 9 15 16 15 15 14 14 13 12 12 12 12 12 11 11 10 9 9 9 8 8 9 10 11 11 11 12 12 12 12 12 13 13 13 14 15 15 15 14 14 14 15 15 16 17 17 16 17 18 18 19 19 20 20 21 21 22 22 21 22
4 1 3 3 2 3 2 1 2 3 4 4 5 5 5 5 4 3 3 1 4 5 3 1 5 4 5 12 15 13 14 13 12 12 12 13 13 13 12 11 11 10 10 10 9 9 9 9 10 10 10 10 11 11 10 11 11 12 13 14 14 15 15 14 14 14 15 15 16 17 17 17 17 17 18 19 19 19 20 20 21 21 22 22 22 22
3 1 4 4 4 3 2 2 3 5 5 6 5 5 5 5 3 2 2 1 3 4 2 2 5 4 4 8 13 13 13 13 13 13 13 12 12 13 12 11 10 10 10 10 9 9 9 9 9 9 9 9 9 9 9 10 11 12 13 14 14 14 14 14 14 14 15 15 16 17 17 17 17 18 18 19 19 19 20 20 20 21 22 22 22 23
3 2 4 5 6 3 3 3 4 5 5 6 6 7 7 5 3 2 2 2 3 2 2 4 5 4 6 9 12 14 14 15 15 14 12 11 12 12 11 11 10 9 10 10 9 8 8 8 9 8 7 7 8 8 9 10 11 12 13 13 14 13 13 14 14 14 15 15 16 17 18 18 18 19 19 19 20 20 20 20 20 21 22 22 23 23
3 3 4 5 6 4 5 2 3 5 6 6 5 6 6 4 2 2 2 3 4 2 2 2 1 4 9 12 13 15 16 15 14 13 11 11 12 11 11 11 10 10 10 9 8 8 8 8 8 7 7 7 7 8 10 11 11 12 12 12 13 13 13 13 14 15 15 16 17 18 18 18 18 19 19 20 20 20 20 21 21 22 22 22 23 23
4 5 4 4 4 4 6 4 4 6 7 3 2 2 3 3 3 3 2 3 5 4 1 2 3 6 11 13 14 15 15 14 13 12 11 11 11 10 11 11 10 11 10 9 9 9 8 8 8 7 7 7 7 8 9 10 11 11 11 12 12 12 13 13 14 15 16 16 17 18 18 18 18 19 19 20 20 21 21 21 22 22 22 22 23 23
5 4 3 3 3 2 5 5 7 6 3 2 3 2 1 0 2 3 3 3 5 5 3 0 2 7 11 12 13 14 13 13 11 11 11 11 10 11 11 11 11 11 10 9 9 9 8 8 8 7 6 7 8 8 9 11 11 11 11 11 11 12 13 13 14 15 16 16 17 17 18 18 18 19 19 20 20 21 21 22 22 22 23 22 22 23
5 5 3 2 2 2 4 7 6 2 2 5 4 2 2 2 3 4 5 6 7 7 5 4 5 8 10 11 12 11 12 12 11 8 9 10 10 11 11 11 11 11 11 11 10 10 9 9 8 7 7 7 8 9 10 11 10 10 11 11 11 12 13 13 15 16 16 16 17 17 17 18 18 19 19 20 20 21 21 22 23 23 24 23 23 22
4 5 5 3 2 2 5 7 4 2 2 5 4 4 6 5 4 4 5 4 8 8 7 7 9 11 11 11 12 13 13 12 9 6 7 9 11 12 12 13 13 13 13 13 12 11 11 10 9 8 8 9 9 10 10 10 9 10 11 11 11 12 13 14 15 16 16 16 16 16 16 17 17 18 19 19 20 21 22 22 23 23 24 24 23 23
3 3 4 5 3 3 5 6 5 5 5 3 4 7 8 4 3 3 4 3 9 11 9 10 12 13 13 13 14 14 12 10 7 6 8 10 12 13 15 15 15 15 15 14 13 13 11 10 9 9 9 9 10 9 9 10 10 10 10 11 12 12 13 14 15 16 16 16 15 16 15 16 17 17 18 19 20 21 22 22 22 23 23 23 23 23
4 3 4 4 4 4 6 6 5 6 3 3 5 8 8 5 4 3 5 3 9 13 11 12 13 14 14 14 14 13 10 8 7 8 10 12 14 16 16 16 16 15 15 14 13 13 12 10 10 9 10 9 9 9 9 9 10 10 11 11 11 12 12 13 14 15 15 15 14 14 14 15 16 16 17 18 19 20 21 21 21 22 22 23 22 23
5 4 5 6 5 5 7 6 5 4 1 5 6 7 8 6 4 5 5 1 8 12 12 13 14 14 15 15 14 12 9 7 5 10 15 17 17 17 17 17 17 16 15 14 13 13 12 10 9 10 10 9 9 8 8 8 9 10 11 11 10 11 12 12 13 14 14 13 13 13 14 15 16 16 16 18 19 19 19 20 21 21 22 22 22 23
5 4 4 6 6 6 7 7 5 3 3 6 8 9 9 6 4 5 2 3 8 11 11 12 14 14 15 14 12 10 6 4 9 15 19 19 18 17 17 17 16 16 15 15 14 12 11 10 10 10 10 8 8 8 8 8 9 10 11 10 10 11 10 10 11 12 13 12 12 12 13 14 15 15 15 17 18 18 19 19 20 21 22 22 22 23
5 5 4 5 6 5 5 6 6 3 3 7 9 9 8 5 3 2 2 4 7 11 11 12 13 13 14 14 11 7 8 13 16 18 19 19 19 18 18 18 17 16 15 15 13 12 10 11 11 10 9 8 7 8 8 8 10 10 10 10 10 9 9 9 10 11 12 12 12 12 13 14 15 14 15 17 17 18 19 19 19 20 21 21 22 22
4 4 5 5 5 4 4 6 6 3 4 11 12 8 6 4 1 4 5 4 5 10 11 11 12 12 14 13 9 9 14 16 17 18 18 18 19 20 19 19 18 17 16 14 13 11 10 11 11 9 8 7 7 8 8 9 10 10 9 9 9 8 8 9 9 10 11 11 12 13 13 14 14 15 15 16 17 18 18 18 19 20 19 20 21 21
4 4 5 4 5 5 5 6 3 1 6 14 11 5 7 4 3 3 5 5 4 8 9 9 10 12 13 12 11 12 15 16 17 18 17 17 19 20 19 19 18 17 16 14 13 11 11 11 11 9 7 7 7 8 8 9 10 10 9 9 8 8 8 8 9 9 10 10 11 13 13 14 14 15 15 16 17 18 18 18 18 18 19 20 21 21
2 1 3 2 5 5 4 1 2 4 6 13 5 2 4 6 3 2 4 5 5 7 8 8 10 12 13 13 13 13 14 15 16 17 16 17 19 20 19 18 18 17 16 15 13 12 11 11 11 9 8 7 7 8 9 10 10 9 9 8 8 9 9 8 9 9 9 10 11 12 13 13 13 14 15 15 16 17 18 18 18 18 19 20 20 20
1 1 3 2 3 4 4 2 2 1 6 11 5 3 3 4 3 2 4 5 5 7 7 8 11 13 13 14 13 12 13 15 16 15 16 17 19 19 19 19 18 17 16 15 14 12 12 11 10 9 9 8 7 8 9 9 9 8 8 8 9 9 9 8 9 9 9 10 10 12 13 13 12 13 15 15 15 17 18 18 18 18 18 19 20 20
3 3 4 3 2 2 4 4 5 3 5 9 8 4 2 2 2 3 2 3 5 7 7 9 12 14 14 14 14 13 14 16 17 15 15 16 18 19 19 19 18 17 16 15 14 13 12 11 10 9 9 8 7 8 9 9 8 8 7 8 9 9 8 8 9 9 10 10 10 10 12 13 12 12 14 14 15 15 17 17 17 16 17 18 19 19
2 3 5 6 6 5 3 2 4 2 4 6 7 6 5 5 5 4 2 3 6 7 8 11 13 14 13 13 14 15 16 16 17 16 15 15 18 19 19 19 18 17 16 15 14 13 11 10 10 9 9 8 8 8 8 8 8 8 8 9 9 9 8 8 8 9 10 10 10 10 10 11 12 12 13 13 14 14 15 17 16 15 15 16 17 17
2 3 4 4 6 7 6 4 5 3 5 8 10 9 7 7 8 6 4 5 8 9 10 12 13 14 14 14 15 16 16 16 17 18 17 17 18 19 19 19 19 18 17 16 14 12 11 10 10 10 9 9 9 8 8 7 7 7 8 9 9 9 9 8 8 8 9 10 11 11 10 10 11 12 12 13 13 12 12 14 16 15 14 13 14 16
3 6 4 3 6 7 5 5 7 5 4 6 11 13 11 9 9 9 7 8 10 11 11 12 13 13 15 16 18 18 16 15 18 20 19 18 19 20 20 20 19 18 17 16 13 12 12 11 10 10 10 9 9 8 7 7 6 7 7 8 9 9 9 8 7 8 9 10 11 12 11 10 10 10 11 12 13 12 10 10 13 15 15 14 15 16
5 6 4 5 6 5 4 2 5 6 4 1 5 12 14 11 10 10 10 10 11 12 13 14 14 14 13 15 18 19 17 17 21 21 19 19 20 21 21 21 20 19 17 16 14 14 13 12 11 10 10 9 9 8 7 7 6 6 7 8 9 9 9 9 8 8 9 9 10 12 12 11 10 11 10 11 11 12 10 9 10 14 17 17 17 17
Wind_Direction
130 135 165 189 137 138 143 111 123 110 101 114 125 114 105 105 103 106 108 103 93 88 85 86 85 83 79 75 72 70 72 71 73 77 77 77 77 76 78 80 82 84 90 98 102 102 100 103 100 85 69 58 52 45 37 32 29 24 21 18 12 8 6 5 4 2 1 1 359 357 357 356 352 350 348 342 337 333 328 325 321 314 308 304 301 300
175 169 147 157 128 125 127 113 111 105 106 121 128 120 116 114 109 110 114 116 109 94 92 90 81 80 82 81 75 69 66 62 62 66 70 73 74 76 76 76 78 79 84 89 91 94 96 100 104 92 71 56 50 43 35 29 26 21 20 18 13 10 9 9 7 2 360 359 355 351 349 347 344 344 341 336 335 332 326 323 320 316 311 306 300 295
204 145 101 120 120 125 131 126 120 114 119 133 132 122 113 112 113 112 116 118 113 102 97 90 79 73 77 78 75 70 68 65 63 61 61 63 63 64 66 70 74 75 75 75 73 76 79 83 89 83 72 58 48 43 35 29 24 22 20 17 14 13 12 10 7 2 356 351 346 341 337 335 333 334 332 330 331 328 324 323 321 319 316 312 305 297
160 89 92 132 139 142 142 137 130 122 131 136 122 112 114 130 130 118 127 125 110 107 103 94 86 85 85 85 80 74 73 72 70 70 68 65 62 59 55 56 59 61 65 68 67 67 69 72 72 66 61 56 49 43 37 30 25 22 18 15 13 14 13 8 3 358 350 344 342 338 332 330 326 328 330 329 333 331 328 328 326 327 322 318 316 308
84 76 121 156 155 154 146 142 133 122 139 122 110 119 132 139 129 115 130 125 114 119 113 100 90 88 85 83 85 81 76 71 68 71 72 70 70 69 64 60 58 55 54 58 63 63 63 64 61 58 54 52 50 42 35 29 23 19 16 15 13 13 11 8 3 358 354 351 352 349 345 346 343 345 346 341 341 342 340 338 336 335 330 325 322 315
80 75 167 165 162 159 148 147 145 138 153 123 121 141 139 128 125 128 138 138 134 132 124 118 88 82 81 74 78 83 78 73 66 67 70 69 70 69 68 67 67 67 61 57 59 60 61 60 57 56 50 47 44 38 32 28 25 22 20 18 17 18 16 13 11 8 8 8 7 5 3 3 359 358 359 353 349 349 348 348 346 344 341 340 337 329
92 119 186 175 166 164 150 152 170 157 151 120 127 142 133 125 140 151 158 163 114 92 118 169 109 95 101 79 74 78 79 79 72 69 69 67 66 63 64 64 62 67 70 67 62 60 59 57 57 55 50 47 44 38 35 32 31 29 28 28 28 30 27 23 22 20 22 23 22 20 18 16 11 7 6 3 0 358 356 357 356 353 351 351 350 345
121 151 184 179 170 176 162 158 175 153 114 124 135 143 139 138 150 161 169 124 89 105 116 127 74 90 101 91 91 89 83 82 74 70 70 69 69 66 67 68 65 63 65 69 65 62 60 57 56 56 52 51 46 41 40 38 40 41 42 42 43 43 40 35 35 35 36 36 33 32 30 28 25 20 15 13 13 11 9 8 6 5 3 0 359 354
133 163 172 176 177 188 155 148 165 151 117 129 139 145 149 143 148 166 148 95 126 172 105 91 317 78 96 112 126 107 86 81 73 70 71 72 72 70 70 72 74 72 68 70 70 67 66 62 60 60 58 57 52 51 52 52 55 55 53 53 53 51 48 45 45 44 44 43 41 39 36 34 30 27 23 19 18 16 14 13 10 8 6 4 2 359
95 122 157 184 188 163 101 134 168 170 126 131 140 149 155 140 147 188 137 103 191 275 69 72 299 8 93 116 129 105 82 75 77 76 73 74 73 71 73 75 79 83 79 76 76 74 72 70 69 69 68 66 62 60 61 60 61 60 59 57 56 54 50 48 47 47 46 44 43 41 37 35 30 27 24 20 19 15 12 12 10 7 5 2 0 358
98 88 73 250 137 87 107 124 152 143 130 139 147 153 159 148 159 211 147 249 234 106 77 66 325 323 97 102 84 80 74 68 81 87 80 79 80 75 76 78 77 80 81 80 80 79 77 75 74 73 71 68 65 62 62 61 61 61 60 59 57 54 50 48 46 46 45 43 41 39 36 33 28 24 21 18 16 12 11 10 7 5 3 2 359 355
111 120 116 72 86 128 127 126 121 130 139 151 156 155 166 163 182 210 193 242 276 75 90 95 1 291 85 94 89 92 94 80 73 80 84 83 84 80 75 76 77 78 80 79 79 77 75 73 70 69 67 65 63 61 60 60 60 60 58 57 56 51 48 47 45 45 44 41 39 35 32 30 27 23 19 16 14 10 8 6 4 2 0 359 357 353
97 91 107 109 160 160 140 130 133 145 155 168 161 164 188 169 187 245 197 239 337 89 112 109 209 271 77 89 107 110 104 95 75 72 85 87 87 87 82 79 79 80 79 78 76 73 71 68 65 64 62 61 59 58 58 57 55 55 52 51 52 49 45 45 44 43 43 40 36 32 30 27 24 21 18 15 12 9 6 3 1 0 358 356 354 350
112 109 132 140 158 177 169 147 150 165 180 185 166 181 222 160 172 284 26 28 15 104 116 98 259 176 111 105 119 117 107 108 103 90 91 94 95 92 90 88 84 81 79 76 76 73 69 66 64 63 60 59 57 53 53 51 48 48 45 46 50 48 45 44 44 43 41 39 35 32 29 25 22 20 18 16 12 8 5 2 360 358 355 353 350 347
151 126 143 159 144 178 201 193 171 173 187 194 176 195 242 305 337 322 359 11 35 93 121 135 226 162 133 129 122 120 121 129 128 115 109 109 107 100 96 93 88 86 83 78 77 74 71 69 67 65 62 59 56 52 49 46 44 44 41 45 49 48 46 44 43 42 41 39 36 33 30 26 23 21 18 15 11 6 3 1 358 356 353 348 346 345
187 109 103 71 127 189 212 310 221 195 186 187 192 214 238 331 19 31 15 16 21 62 136 160 176 69 104 126 128 136 141 145 145 133 129 121 115 111 104 100 95 89 84 79 79 79 77 73 69 66 61 58 56 53 50 45 42 41 40 46 49 47 46 45 43 42 40 39 36 33 30 26 23 21 17 13 7 4 0 357 354 352 350 347 344 344
209 115 106 105 145 192 235 208 212 257 189 164 202 218 98 36 28 121 82 65 306 278 128 169 177 117 133 146 146 156 151 152 159 145 135 127 123 120 111 107 100 91 82 77 80 81 79 72 65 64 61 58 56 54 53 49 47 45 46 50 51 48 46 43 42 41 37 35 33 30 26 23 19 15 13 7 2 359 356 354 352 350 349 349 347 345
239 131 123 132 133 136 235 192 173 289 308 203 197 163 107 65 262 251 283 184 251 282 126 192 209 160 169 158 154 167 162 161 164 148 139 136 131 125 115 110 101 94 87 82 84 83 79 72 67 67 66 64 62 59 58 56 55 55 54 53 52 48 44 40 37 35 31 27 24 21 18 15 12 8 5 1 358 356 354 354 353 352 352 350 349 347
242 154 132 112 108 127 167 188 163 163 280 328 110 145 156 247 218 198 256 270 273 300 171 186 200 197 201 161 163 176 168 164 163 151 149 145 137 128 118 116 108 102 96 87 85 83 81 78 74 73 70 69 66 63 61 58 58 57 54 51 48 45 42 37 33 28 24 20 16 12 9 7 6 3 0 358 357 356 356 356 355 354 351 350 350 349
226 219 149 144 130 148 178 203 187 163 170 158 134 170 210 276 296 209 248 282 291 302 306 188 186 200 195 151 168 174 165 164 163 156 154 143 135 131 122 120 114 106 101 92 89 88 86 83 80 76 71 68 66 62 60 57 55 53 49 45 41 36 34 32 29 23 18 16 12 8 5 4 3 2 0 360 360 360 360 359 357 354 351 349 350 350
210 246 170 145 152 185 187 205 262 166 162 185 196 197 199 208 272 267 232 246 283 294 310 296 239 133 96 126 165 164 160 164 162 154 149 138 130 124 117 118 112 104 101 96 95 95 93 89 86 80 72 67 64 59 56 52 49 46 43 40 35 30 26 24 23 20 16 12 9 7 6 5 4 4 3 3 3 3 1 359 357 354 351 349 349 348
226 229 193 157 177 207 123 46 339 329 320 244 220 211 204 196 215 243 228 194 245 283 308 308 307 105 105 126 158 155 157 162 158 150 144 136 130 124 120 119 113 108 106 103 101 98 94 91 85 79 71 64 59 54 51 48 45 41 37 35 33 28 24 21 19 16 13 10 8 8 7 6 6 4 3 2 2 1 359 356 354 351 349 348 347 347
307 242 208 169 160 127 68 59 7 335 323 286 274 263 230 214 231 259 276 168 207 254 288 282 285 104 114 139 146 150 156 156 151 146 141 135 130 128 127 121 115 113 110 107 103 98 95 90 82 74 68 62 57 53 47 44 43 39 33 30 29 27 23 19 16 12 10 9 9 9 7 6 5 3 2 2 1 358 356 354 352 351 349 348 347 347
247 239 206 173 130 112 99 106 111 72 261 241 231 240 250 247 264 296 321 328 261 248 248 262 259 126 129 150 149 149 152 149 147 144 139 135 132 133 131 126 121 116 113 108 103 98 94 87 76 65 57 53 52 50 45 41 38 36 32 27 25 25 21 16 13 10 10 9 8 8 7 5 4 2 3 1 359 357 355 354 353 352 352 350 350 349
215 238 211 202 181 165 169 173 172 178 214 236 203 176 241 257 239 268 287 271 266 254 258 281 290 113 131 157 157 152 151 149 147 144 139 137 139 137 133 129 125 119 117 112 103 96 88 76 67 59 51 46 44 43 39 35 32 31 30 27 24 22 18 13 11 9 8 6 6 6 6 5 3 3 2 360 358 356 354 354 353 352 353 352 352 352
219 253 230 235 225 209 209 201 200 188 178 198 175 162 205 219 211 237 258 248 257 208 223 270 292 113 136 161 163 161 159 153 147 144 143 143 143 139 136 134 129 123 119 112 102 94 85 73 65 59 51 45 41 37 33 29 26 27 27 25 23 19 15 11 8 6 5 3 4 4 3 3 2 0 359 357 356 355 353 353 352 351 352 351 351 353
201 197 244 279 286 273 316 36 33 330 186 183 172 166 183 197 205 242 264 273 312 62 240 254 146 139 158 170 171 170 169 161 152 149 148 146 142 139 138 134 128 125 120 113 105 97 90 80 71 63 54 47 40 34 31 27 25 25 24 23 20 16 12 8 3 3 3 2 2 2 1 0 358 357 356 354 352 351 351 351 352 350 349 349 350 352
231 205 195 316 347 5 7 47 54 329 222 188 173 168 171 175 196 234 263 322 359 285 276 138 140 165 173 173 176 175 173 168 158 156 152 148 145 141 137 134 130 129 125 116 107 100 94 84 72 63 54 46 38 33 30 28 27 25 22 20 17 12 9 5 2 2 2 2 3 2 0 358 356 354 354 352 350 350 350 350 350 349 348 348 350 351
265 240 146 248 18 43 26 63 91 345 195 169 170 167 167 179 200 234 261 292 264 272 320 89 169 202 180 176 180 175 173 171 161 156 151 147 147 143 141 142 139 135 129 117 106 97 88 77 68 60 51 44 37 32 30 28 27 25 21 19 14 10 8 5 3 3 3 4 4 1 359 357 355 354 353 352 352 351 351 350 349 348 347 348 348 349
279 207 141 187 167 94 66 113 163 182 167 153 162 169 173 183 204 243 257 262 257 271 333 357 225 226 175 178 178 169 169 166 154 150 150 150 150 148 148 148 142 136 127 113 102 92 82 73 67 60 53 46 38 34 32 29 26 23 20 16 12 10 9 7 6 5 4 5 3 360 358 356 355 354 353 354 353 351 351 350 349 348 347 348 348 348
266 179 147 194 198 134 117 163 175 192 188 168 162 168 176 178 180 193 175 180 241 250 276 261 232 210 163 167 166 162 165 161 153 152 154 154 153 152 152 147 139 132 119 107 100 94 86 77 68 62 56 50 43 39 36 30 26 23 19 15 13 11 9 8 8 6 5 5 2 360 359 357 355 354 354 354 353 352 352 350 350 349 347 347 347 348
224 170 153 211 225 166 132 168 179 188 206 200 184 180 185 187 176 151 147 188 233 228 181 216 229 190 158 160 161 163 166 164 159 156 155 156 156 156 152 144 137 129 117 110 105 98 90 81 73 67 61 54 49 43 37 29 25 23 18 15 13 11 9 9 7 5 6 4 1 1 0 357 355 355 355 354 353 352 352 351 351 350 348 347 347 347
195 181 174 213 228 169 136 157 175 190 220 225 196 180 179 178 171 163 165 192 223 230 192 228 294 126 148 161 164 167 171 170 163 159 157 157 158 157 150 143 138 128 117 112 108 100 92 86 81 76 70 61 51 44 36 28 25 23 18 15 14 13 11 9 8 7 5 4 4 3 0 357 356 355 355 354 353 352 352 353 353 351 348 347 346 347
192 212 200 209 236 175 141 151 189 215 234 233 89 119 155 158 189 209 208 190 202 220 240 0 37 130 155 165 166 169 173 171 164 159 157 157 158 155 149 143 134 126 120 113 108 104 98 95 93 86 79 67 54 44 34 31 28 22 18 17 17 16 11 9 9 9 6 5 5 3 0 358 357 356 355 355 354 354 354 354 353 351 350 347 346 348
187 210 200 205 244 174 139 170 208 229 239 113 88 88 133 169 250 260 269 226 203 209 208 111 119 156 165 168 166 167 167 162 153 149 151 154 154 149 144 139 132 127 123 116 112 111 108 106 102 93 82 66 52 41 33 31 27 19 20 22 20 17 13 11 11 10 7 6 4 2 1 359 357 356 356 356 356 356 356 356 355 354 353 351 349 350
189 188 174 182 230 175 170 198 213 232 104 124 125 128 142 180 224 242 252 221 195 198 194 158 134 147 156 157 155 152 146 139 129 125 138 147 146 145 142 138 134 129 123 121 121 118 114 110 105 98 83 64 49 39 32 28 24 21 24 24 22 20 16 15 13 10 8 6 4 2 0 358 358 358 357 358 358 359 359 359 359 358 356 354 353 353
211 195 181 184 222 229 220 213 215 278 207 175 170 168 176 191 194 220 263 216 175 183 182 152 140 143 145 141 139 138 136 136 130 123 135 141 141 141 137 132 131 126 121 122 123 119 116 112 108 100 84 66 51 40 34 27 23 27 29 26 24 22 19 18 15 10 7 6 2 0 359 358 359 358 359 0 1 1 1 1 1 1 358 356 356 356
225 225 208 202 205 236 248 232 225 249 244 197 147 153 168 177 146 177 270 231 169 173 174 156 150 151 146 141 143 144 146 158 168 156 148 146 140 136 132 129 128 125 124 126 127 123 118 113 108 96 82 69 56 43 35 29 28 31 33 30 26 23 21 19 15 9 6 4 0 359 358 357 359 359 0 3 3 2 2 3 3 4 1 359 358 357
209 239 236 221 195 200 240 247 232 238 245 96 110 140 155 151 133 177 259 243 162 166 170 161 157 158 155 152 152 153 164 187 189 162 154 152 144 138 135 132 129 127 129 130 127 123 119 113 106 93 79 68 55 43 35 35 35 36 37 33 27 25 23 18 13 8 4 1 358 358 358 358 0 2 3 4 5 4 4 4 4 5 4 3 2 0
197 210 219 224 211 201 224 245 247 242 179 106 121 142 150 151 167 213 253 192 144 163 171 163 160 162 161 156 157 167 188 208 178 148 149 149 143 140 139 136 134 134 132 129 124 121 119 113 102 89 77 64 51 42 36 38 42 42 41 35 28 27 23 15 10 7 2 1 360 358 1 3 4 5 6 7 7 5 7 7 6 7 7 6 5 4
195 201 215 230 229 212 217 240 255 246 117 119 138 145 145 155 203 231 253 86 137 164 170 165 163 162 160 160 169 182 179 112 110 130 142 144 141 141 141 137 136 135 131 128 126 122 117 107 95 85 77 63 49 43 40 42 47 46 42 36 30 26 20 11 9 7 4 5 3 0 4 7 6 7 9 10 10 9 9 10 9 10 9 6 6 6
190 190 207 230 235 225 218 237 252 248 119 126 132 135 152 179 212 212 85 89 141 161 164 166 164 160 162 169 179 167 118 105 118 132 140 143 142 142 141 138 136 132 128 128 127 122 115 107 98 89 79 64 51 47 46 48 51 49 42 36 30 22 15 11 9 8 8 8 6 5 8 10 10 11 12 13 12 11 11 12 12 12 9 4 3 4
188 194 213 211 214 231 227 226 247 271 139 142 135 135 189 222 52 97 110 102 138 157 162 166 164 163 169 170 159 129 116 120 131 135 138 141 140 140 141 139 137 135 133 132 129 124 118 111 103 94 83 70 58 53 51 53 54 50 41 35 26 17 15 15 10 10 11 11 11 12 14 15 15 16 16 14 14 13 13 14 13 12 10 5 1 1
179 206 236 205 186 215 228 213 230 10 145 161 156 162 201 194 49 85 134 119 140 162 163 166 166 168 170 159 140 129 126 130 137 139 140 142 141 141 143 141 139 139 137 132 129 126 121 113 107 101 90 77 66 60 56 56 56 51 40 31 22 16 19 17 12 13 15 16 17 18 19 20 20 20 19 16 15 15 14 13 13 13 11 6 3 2
187 230 300 272 191 221 262 231 71 58 154 176 175 34 158 150 73 49 133 124 148 170 168 169 167 166 166 154 140 137 136 137 141 143 142 143 144 144 144 143 141 140 135 131 131 129 122 116 114 109 97 84 74 67 62 59 57 50 38 28 20 19 21 18 16 17 18 20 24 22 20 20 20 22 22 18 18 18 15 13 13 13 11 8 5 4
41 41 309 296 200 229 271 241 155 112 180 186 179 51 103 144 118 122 140 130 148 168 170 168 164 161 161 155 145 142 144 143 143 143 142 144 145 145 144 142 141 138 135 135 135 131 124 121 120 114 104 94 82 73 68 63 57 50 37 27 23 22 22 19 18 19 19 22 26 25 24 23 22 22 21 19 20 21 17 14 14 13 12 9 7 5
153 172 234 253 194 213 240 204 184 193 193 192 192 171 158 185 162 155 153 123 138 160 166 161 158 158 159 158 151 145 145 145 143 143 144 145 146 146 145 142 141 140 140 140 137 134 131 130 127 120 111 101 89 80 75 67 59 51 39 31 27 25 24 22 19 19 20 20 22 25 28 28 25 24 23 21 22 23 21 17 15 15 15 13 9 6
139 168 220 231 221 230 243 160 149 190 207 211 216 202 189 194 181 160 137 117 134 151 154 152 155 158 159 159 153 145 146 149 148 146 147 148 147 148 146 144 143 143 142 141 140 139 138 136 131 124 114 104 95 86 81 74 62 51 42 35 30 27 26 23 17 16 17 18 18 19 22 25 26 27 27 26 24 24 24 22 19 20 22 21 17 13
105 177 218 229 226 241 249 194 166 203 226 217 218 214 199 186 174 161 152 145 143 143 144 149 156 159 159 158 152 146 148 152 151 149 149 150 149 150 148 145 145 145 143 143 144 143 140 136 131 125 115 106 100 93 88 81 66 52 45 38 33 29 25 17 12 15 16 17 17 13 11 16 23 27 29 29 28 27 27 26 26 27 28 24 19 18
196 221 220 214 225 246 255 186 174 210 250 213 202 203 194 175 162 160 158 156 155 150 146 146 150 155 158 157 154 150 149 151 153 151 149 149 151 151 148 146 146 146 145 145 145 143 140 138 133 126 117 108 104 101 95 85 70 56 48 41 35 31 23 15 15 19 19 19 17 12 8 11 16 19 23 27 28 28 28 27 25 23 22 19 15 14
230 254 242 242 256 288 358 69 191 232 281 7 175 188 182 168 162 167 167 165 162 156 151 149 149 152 155 157 158 156 151 151 154 151 147 149 150 149 148 149 149 149 149 148 148 146 144 141 136 127 118 112 111 107 99 89 75 60 52 45 39 34 27 21 22 24 22 22 18 10 7 9 11 12 16 21 21 22 23 25 23 17 14 14 14 14